Time,TemperatureF,DewpointF,PressureIn,WindDirection,WindDirectionDegrees,WindSpeedMPH,WindSpeedGustMPH,Humidity,HourlyPrecipIn,Conditions,Clouds,dailyrainin,SoftwareType,DateUTC
2013-03-13 00:03:00,52.9,37.2,30.28,ENE,59,4.0,26.0,55,0.00,,,0.00,Wunderground v.1.15,2013-03-13 05:03:00,
2013-03-13 00:08:00,52.6,37.3,30.28,ENE,65,3.0,26.0,56,0.00,,,0.00,Wunderground v.1.15,2013-03-13 05:08:00,
2013-03-13 00:14:00,52.4,37.2,30.28,ENE,69,4.0,26.0,56,0.00,,,0.00,Wunderground v.1.15,2013-03-13 05:14:00,
2013-03-13 00:19:00,52.2,37.0,30.28,ENE,58,4.0,26.0,56,0.00,,,0.00,Wunderground v.1.15,2013-03-13 05:19:00,
2013-03-13 00:25:00,52.3,36.6,30.28,East,82,5.0,26.0,55,0.00,,,0.00,Wunderground v.1.15,2013-03-13 05:25:00,
2013-03-13 00:30:00,52.3,36.6,30.29,East,79,5.0,5.0,55,0.00,,,0.00,Wunderground v.1.15,2013-03-13 05:30:00,
2013-03-13 00:35:00,52.1,36.4,30.29,ENE,59,4.0,26.0,55,0.00,,,0.00,Wunderground v.1.15,2013-03-13 05:35:00,
2013-03-13 00:41:00,51.9,36.2,30.29,ENE,71,3.0,26.0,55,0.00,,,0.00,Wunderground v.1.15,2013-03-13 05:41:00,
2013-03-13 00:46:00,51.6,36.4,30.29,ENE,70,3.0,26.0,56,0.00,,,0.00,Wunderground v.1.15,2013-03-13 05:46:00,
2013-03-13 00:52:00,51.3,36.1,30.29,ENE,70,3.0,26.0,56,0.00,,,0.00,Wunderground v.1.15,2013-03-13 05:52:00,
2013-03-13 00:57:00,51.1,35.9,30.29,ENE,64,2.0,26.0,56,0.00,,,0.00,Wunderground v.1.15,2013-03-13 05:57:00,
2013-03-13 01:03:00,50.7,36.0,30.30,ENE,59,2.0,26.0,57,0.00,,,0.00,Wunderground v.1.15,2013-03-13 06:03:00,
2013-03-13 01:08:00,50.6,35.9,30.30,ENE,63,3.0,26.0,57,0.00,,,0.00,Wunderground v.1.15,2013-03-13 06:08:00,
2013-03-13 01:14:00,50.3,36.1,30.30,ENE,64,3.0,26.0,58,0.00,,,0.00,Wunderground v.1.15,2013-03-13 06:14:00,
2013-03-13 01:19:00,50.3,36.1,30.30,ENE,64,3.0,26.0,58,0.00,,,0.00,Wunderground v.1.15,2013-03-13 06:19:00,
2013-03-13 01:24:00,50.1,35.9,30.30,ENE,71,2.0,26.0,58,0.00,,,0.00,Wunderground v.1.15,2013-03-13 06:24:00,
2013-03-13 01:30:00,49.8,35.6,30.30,ENE,73,2.0,2.0,58,0.00,,,0.00,Wunderground v.1.15,2013-03-13 06:30:00,
2013-03-13 01:36:00,49.6,35.4,30.30,NE,56,2.0,26.0,58,0.00,,,0.00,Wunderground v.1.15,2013-03-13 06:36:00,
2013-03-13 01:42:00,49.6,35.4,30.30,ENE,76,1.0,26.0,58,0.00,,,0.00,Wunderground v.1.15,2013-03-13 06:42:00,
2013-03-13 01:48:00,49.5,35.3,30.30,East,96,1.0,26.0,58,0.00,,,0.00,Wunderground v.1.15,2013-03-13 06:48:00,
2013-03-13 01:54:00,49.5,34.9,30.30,ENE,77,1.0,26.0,57,0.00,,,0.00,Wunderground v.1.15,2013-03-13 06:54:00,
2013-03-13 01:59:00,49.4,34.8,30.30,East,91,1.0,26.0,57,0.00,,,0.00,Wunderground v.1.15,2013-03-13 06:59:00,
2013-03-13 02:04:00,49.1,34.9,30.30,East,91,1.0,26.0,58,0.00,,,0.00,Wunderground v.1.15,2013-03-13 07:04:00,
2013-03-13 02:10:00,48.9,34.8,30.30,ESE,121,1.0,26.0,58,0.00,,,0.00,Wunderground v.1.15,2013-03-13 07:10:00,
2013-03-13 02:16:00,48.9,34.8,30.31,ESE,115,1.0,26.0,58,0.00,,,0.00,Wunderground v.1.15,2013-03-13 07:16:00,
2013-03-13 02:22:00,48.7,34.6,30.31,ESE,115,2.0,26.0,58,0.00,,,0.00,Wunderground v.1.15,2013-03-13 07:22:00,
2013-03-13 02:28:00,48.7,34.1,30.31,ESE,104,2.0,26.0,57,0.00,,,0.00,Wunderground v.1.15,2013-03-13 07:28:00,
2013-03-13 02:34:00,48.6,34.5,30.31,East,96,2.0,26.0,58,0.00,,,0.00,Wunderground v.1.15,2013-03-13 07:34:00,
2013-03-13 02:40:00,48.3,34.2,30.31,ENE,75,2.0,26.0,58,0.00,,,0.00,Wunderground v.1.15,2013-03-13 07:40:00,
2013-03-13 02:46:00,47.9,34.3,30.31,ENE,75,2.0,26.0,59,0.00,,,0.00,Wunderground v.1.15,2013-03-13 07:46:00,
2013-03-13 02:51:00,47.9,34.3,30.31,East,79,1.0,26.0,59,0.00,,,0.00,Wunderground v.1.15,2013-03-13 07:51:00,
2013-03-13 02:57:00,47.9,34.3,30.31,East,79,1.0,26.0,59,0.00,,,0.00,Wunderground v.1.15,2013-03-13 07:57:00,
2013-03-13 03:02:00,47.8,33.7,30.31,ESE,103,1.0,26.0,58,0.00,,,0.00,Wunderground v.1.15,2013-03-13 08:02:00,
2013-03-13 03:08:00,47.7,33.6,30.31,ESE,103,1.0,26.0,58,0.00,,,0.00,Wunderground v.1.15,2013-03-13 08:08:00,
2013-03-13 03:14:00,47.7,33.6,30.32,ESE,103,0.0,26.0,58,0.00,,,0.00,Wunderground v.1.15,2013-03-13 08:14:00,
2013-03-13 03:20:00,48.0,33.5,30.32,East,82,1.0,26.0,57,0.00,,,0.00,Wunderground v.1.15,2013-03-13 08:20:00,
2013-03-13 03:26:00,47.9,33.8,30.32,ENE,77,2.0,26.0,58,0.00,,,0.00,Wunderground v.1.15,2013-03-13 08:26:00,
2013-03-13 03:32:00,47.4,33.4,30.32,ENE,60,2.0,26.0,58,0.00,,,0.00,Wunderground v.1.15,2013-03-13 08:32:00,
2013-03-13 03:37:00,47.2,33.6,30.32,ENE,59,2.0,26.0,59,0.00,,,0.00,Wunderground v.1.15,2013-03-13 08:37:00,
2013-03-13 03:43:00,47.1,33.5,30.32,ENE,61,2.0,26.0,59,0.00,,,0.00,Wunderground v.1.15,2013-03-13 08:43:00,
2013-03-13 03:49:00,46.8,33.2,30.32,ENE,61,2.0,26.0,59,0.00,,,0.00,Wunderground v.1.15,2013-03-13 08:49:00,
2013-03-13 03:54:00,46.4,33.3,30.32,ENE,60,1.0,26.0,60,0.00,,,0.00,Wunderground v.1.15,2013-03-13 08:54:00,
2013-03-13 04:00:00,45.9,32.8,30.33,ENE,61,0.0,26.0,60,0.00,,,0.00,Wunderground v.1.15,2013-03-13 09:00:00,
2013-03-13 04:06:00,45.6,32.9,30.33,ENE,60,0.0,26.0,61,0.00,,,0.00,Wunderground v.1.15,2013-03-13 09:06:00,
2013-03-13 04:12:00,45.4,32.7,30.33,ENE,60,0.0,26.0,61,0.00,,,0.00,Wunderground v.1.15,2013-03-13 09:12:00,
2013-03-13 04:18:00,45.7,33.0,30.33,ENE,61,1.0,26.0,61,0.00,,,0.00,Wunderground v.1.15,2013-03-13 09:18:00,
2013-03-13 04:24:00,45.6,32.9,30.33,ENE,61,1.0,26.0,61,0.00,,,0.00,Wunderground v.1.15,2013-03-13 09:24:00,
2013-03-13 04:29:00,45.4,33.1,30.32,ENE,61,1.0,26.0,62,0.00,,,0.00,Wunderground v.1.15,2013-03-13 09:29:00,
2013-03-13 04:35:00,45.3,33.0,30.32,East,82,1.0,26.0,62,0.00,,,0.00,Wunderground v.1.15,2013-03-13 09:35:00,
2013-03-13 04:40:00,45.2,32.9,30.32,East,82,2.0,2.0,62,0.00,,,0.00,Wunderground v.1.15,2013-03-13 09:40:00,
2013-03-13 04:45:00,45.2,32.9,30.32,East,82,2.0,26.0,62,0.00,,,0.00,Wunderground v.1.15,2013-03-13 09:45:00,
2013-03-13 04:50:00,45.2,32.9,30.32,East,82,2.0,2.0,62,0.00,,,0.00,Wunderground v.1.15,2013-03-13 09:50:00,
2013-03-13 04:56:00,45.2,32.9,30.32,East,82,1.0,26.0,62,0.00,,,0.00,Wunderground v.1.15,2013-03-13 09:56:00,
2013-03-13 05:02:00,45.0,32.8,30.32,East,82,1.0,26.0,62,0.00,,,0.00,Wunderground v.1.15,2013-03-13 10:02:00,
2013-03-13 05:07:00,44.7,32.9,30.33,East,82,0.0,26.0,63,0.00,,,0.00,Wunderground v.1.15,2013-03-13 10:07:00,
2013-03-13 05:13:00,44.4,33.0,30.33,East,82,0.0,26.0,64,0.00,,,0.00,Wunderground v.1.15,2013-03-13 10:13:00,
2013-03-13 05:19:00,44.1,32.7,30.33,SW,231,1.0,26.0,64,0.00,,,0.00,Wunderground v.1.15,2013-03-13 10:19:00,
2013-03-13 05:24:00,44.3,32.9,30.33,ESE,110,1.0,26.0,64,0.00,,,0.00,Wunderground v.1.15,2013-03-13 10:24:00,
2013-03-13 05:30:00,44.7,32.9,30.33,ESE,107,2.0,26.0,63,0.00,,,0.00,Wunderground v.1.15,2013-03-13 10:30:00,
2013-03-13 05:35:00,44.6,32.8,30.33,East,89,2.0,26.0,63,0.00,,,0.00,Wunderground v.1.15,2013-03-13 10:35:00,
2013-03-13 05:42:00,44.5,32.7,30.33,East,101,1.0,26.0,63,0.00,,,0.00,Wunderground v.1.15,2013-03-13 10:42:00,
2013-03-13 05:48:00,44.7,32.5,30.33,ESE,102,1.0,26.0,62,0.00,,,0.00,Wunderground v.1.15,2013-03-13 10:48:00,
2013-03-13 05:54:00,44.8,32.6,30.33,ESE,102,0.0,26.0,62,0.00,,,0.00,Wunderground v.1.15,2013-03-13 10:54:00,
2013-03-13 05:59:00,44.9,32.7,30.33,East,101,0.0,26.0,62,0.00,,,0.00,Wunderground v.1.15,2013-03-13 10:59:00,
2013-03-13 06:05:00,44.5,32.7,30.33,East,101,1.0,26.0,63,0.00,,,0.00,Wunderground v.1.15,2013-03-13 11:05:00,
2013-03-13 06:11:00,44.0,32.6,30.34,East,100,0.0,26.0,64,0.00,,,0.00,Wunderground v.1.15,2013-03-13 11:11:00,
2013-03-13 06:17:00,43.5,32.5,30.34,East,100,0.0,26.0,65,0.00,,,0.00,Wunderground v.1.15,2013-03-13 11:17:00,
2013-03-13 06:22:00,43.5,32.1,30.34,East,101,0.0,26.0,64,0.00,,,0.00,Wunderground v.1.15,2013-03-13 11:22:00,
2013-03-13 06:28:00,43.8,32.4,30.34,East,100,1.0,26.0,64,0.00,,,0.00,Wunderground v.1.15,2013-03-13 11:28:00,
2013-03-13 06:34:00,44.0,32.2,30.35,East,100,1.0,26.0,63,0.00,,,0.00,Wunderground v.1.15,2013-03-13 11:34:00,
2013-03-13 06:39:00,44.0,32.2,30.35,East,84,1.0,26.0,63,0.00,,,0.00,Wunderground v.1.15,2013-03-13 11:39:00,
2013-03-13 06:45:00,44.1,32.3,30.36,East,84,2.0,26.0,63,0.00,,,0.00,Wunderground v.1.15,2013-03-13 11:45:00,
2013-03-13 06:50:00,44.2,32.0,30.36,ENE,76,2.0,2.0,62,0.00,,,0.00,Wunderground v.1.15,2013-03-13 11:50:00,
2013-03-13 06:56:00,44.2,32.0,30.36,ENE,76,1.0,26.0,62,0.00,,,0.00,Wunderground v.1.15,2013-03-13 11:56:00,
2013-03-13 07:02:00,44.4,32.2,30.36,ENE,76,1.0,26.0,62,0.00,,,0.00,Wunderground v.1.15,2013-03-13 12:02:00,
2013-03-13 07:07:00,44.3,32.1,30.36,ENE,76,1.0,26.0,62,0.00,,,0.00,Wunderground v.1.15,2013-03-13 12:07:00,
2013-03-13 07:13:00,44.2,32.0,30.37,ENE,77,1.0,26.0,62,0.00,,,0.00,Wunderground v.1.15,2013-03-13 12:13:00,
2013-03-13 07:19:00,44.2,32.0,30.37,ENE,76,1.0,26.0,62,0.00,,,0.00,Wunderground v.1.15,2013-03-13 12:19:00,
2013-03-13 07:25:00,44.2,32.0,30.37,ENE,76,1.0,26.0,62,0.00,,,0.00,Wunderground v.1.15,2013-03-13 12:25:00,
2013-03-13 07:32:00,43.9,31.7,30.38,ENE,77,0.0,26.0,62,0.00,,,0.00,Wunderground v.1.15,2013-03-13 12:32:00,
2013-03-13 07:38:00,43.6,31.4,30.38,ENE,76,0.0,26.0,62,0.00,,,0.00,Wunderground v.1.15,2013-03-13 12:38:00,
2013-03-13 07:43:00,43.4,31.6,30.38,ENE,76,0.0,26.0,63,0.00,,,0.00,Wunderground v.1.15,2013-03-13 12:43:00,
2013-03-13 07:49:00,43.4,31.6,30.38,ENE,76,0.0,26.0,63,0.00,,,0.00,Wunderground v.1.15,2013-03-13 12:49:00,
2013-03-13 07:55:00,44.0,31.8,30.38,ENE,76,0.0,26.0,62,0.00,,,0.00,Wunderground v.1.15,2013-03-13 12:55:00,
2013-03-13 08:00:00,44.5,31.9,30.39,ENE,76,0.0,26.0,61,0.00,,,0.00,Wunderground v.1.15,2013-03-13 13:00:00,
2013-03-13 08:06:00,45.2,32.1,30.39,ENE,76,0.0,26.0,60,0.00,,,0.00,Wunderground v.1.15,2013-03-13 13:06:00,
2013-03-13 08:12:00,45.8,32.3,30.39,ENE,76,0.0,26.0,59,0.00,,,0.00,Wunderground v.1.15,2013-03-13 13:12:00,
2013-03-13 08:17:00,46.1,32.1,30.39,ENE,76,0.0,26.0,58,0.00,,,0.00,Wunderground v.1.15,2013-03-13 13:17:00,
2013-03-13 08:23:00,46.8,32.8,30.40,ENE,76,0.0,26.0,58,0.00,,,0.00,Wunderground v.1.15,2013-03-13 13:23:00,
2013-03-13 08:28:00,47.3,33.3,30.40,ENE,76,0.0,26.0,58,0.00,,,0.00,Wunderground v.1.15,2013-03-13 13:28:00,
2013-03-13 08:33:00,47.5,33.9,30.40,ENE,76,0.0,26.0,59,0.00,,,0.00,Wunderground v.1.15,2013-03-13 13:33:00,
2013-03-13 08:39:00,47.5,34.3,30.40,ENE,74,1.0,26.0,60,0.00,,,0.00,Wunderground v.1.15,2013-03-13 13:39:00,
2013-03-13 08:45:00,47.8,35.4,30.41,East,84,2.0,26.0,62,0.00,,,0.00,Wunderground v.1.15,2013-03-13 13:45:00,
2013-03-13 08:50:00,48.3,35.9,30.41,East,96,2.0,26.0,62,0.00,,,0.00,Wunderground v.1.15,2013-03-13 13:50:00,
2013-03-13 08:55:00,48.7,35.8,30.41,ESE,102,3.0,26.0,61,0.00,,,0.00,Wunderground v.1.15,2013-03-13 13:55:00,
2013-03-13 09:01:00,49.2,35.9,30.41,ESE,108,4.0,26.0,60,0.00,,,0.00,Wunderground v.1.15,2013-03-13 14:01:00,
2013-03-13 09:06:00,49.6,35.8,30.41,ESE,118,5.0,26.0,59,0.00,,,0.00,Wunderground v.1.15,2013-03-13 14:06:00,
2013-03-13 09:12:00,50.3,36.1,30.42,East,101,4.0,26.0,58,0.00,,,0.00,Wunderground v.1.15,2013-03-13 14:12:00,
2013-03-13 09:17:00,50.6,36.4,30.42,ESE,105,5.0,26.0,58,0.00,,,0.00,Wunderground v.1.15,2013-03-13 14:17:00,
2013-03-13 09:23:00,51.2,36.9,30.42,East,83,6.0,26.0,58,0.00,,,0.00,Wunderground v.1.15,2013-03-13 14:23:00,
2013-03-13 09:29:00,51.7,37.4,30.42,SE,133,7.0,26.0,58,0.00,,,0.00,Wunderground v.1.15,2013-03-13 14:29:00,
2013-03-13 09:34:00,52.3,37.1,30.42,ESE,117,8.0,26.0,56,0.00,,,0.00,Wunderground v.1.15,2013-03-13 14:34:00,
2013-03-13 09:39:00,52.6,36.9,30.42,East,94,8.0,26.0,55,0.00,,,0.00,Wunderground v.1.15,2013-03-13 14:39:00,
2013-03-13 09:44:00,53.0,37.7,30.42,ESE,121,8.0,26.0,56,0.00,,,0.00,Wunderground v.1.15,2013-03-13 14:44:00,
2013-03-13 09:50:00,53.8,38.0,30.42,ESE,112,8.0,26.0,55,0.00,,,0.00,Wunderground v.1.15,2013-03-13 14:50:00,
2013-03-13 09:56:00,53.8,38.0,30.43,ESE,114,10.0,26.0,55,0.00,,,0.00,Wunderground v.1.15,2013-03-13 14:56:00,
2013-03-13 10:01:00,53.9,37.6,30.43,East,99,11.0,12.0,54,0.00,,,0.00,Wunderground v.1.15,2013-03-13 15:01:00,
2013-03-13 10:07:00,54.2,37.9,30.42,ESE,112,10.0,26.0,54,0.00,,,0.00,Wunderground v.1.15,2013-03-13 15:07:00,
2013-03-13 10:12:00,54.4,38.6,30.42,East,91,10.0,26.0,55,0.00,,,0.00,Wunderground v.1.15,2013-03-13 15:12:00,
2013-03-13 10:18:00,54.8,38.5,30.43,ESE,109,10.0,26.0,54,0.00,,,0.00,Wunderground v.1.15,2013-03-13 15:18:00,
2013-03-13 10:23:00,55.2,38.4,30.43,ESE,115,9.0,26.0,53,0.00,,,0.00,Wunderground v.1.15,2013-03-13 15:23:00,
2013-03-13 10:28:00,55.5,38.6,30.43,SE,128,8.0,26.0,53,0.00,,,0.00,Wunderground v.1.15,2013-03-13 15:28:00,
2013-03-13 10:33:00,55.5,38.6,30.43,East,89,9.0,26.0,53,0.00,,,0.00,Wunderground v.1.15,2013-03-13 15:33:00,
2013-03-13 10:38:00,55.9,38.5,30.43,ESE,106,9.0,26.0,52,0.00,,,0.00,Wunderground v.1.15,2013-03-13 15:38:00,
2013-03-13 10:44:00,56.5,39.1,30.43,ESE,102,9.0,26.0,52,0.00,,,0.00,Wunderground v.1.15,2013-03-13 15:44:00,
2013-03-13 10:49:00,57.0,39.0,30.43,SE,132,9.0,26.0,51,0.00,,,0.00,Wunderground v.1.15,2013-03-13 15:49:00,
2013-03-13 10:54:00,57.7,38.7,30.44,SE,136,8.0,26.0,49,0.00,,,0.00,Wunderground v.1.15,2013-03-13 15:54:00,
2013-03-13 11:00:00,57.9,38.3,30.44,ESE,104,8.0,26.0,48,0.00,,,0.00,Wunderground v.1.15,2013-03-13 16:00:00,
2013-03-13 11:06:00,58.3,39.2,30.44,East,94,8.0,26.0,49,0.00,,,0.00,Wunderground v.1.15,2013-03-13 16:06:00,
2013-03-13 11:12:00,58.7,39.0,30.43,ESE,122,9.0,26.0,48,0.00,,,0.00,Wunderground v.1.15,2013-03-13 16:12:00,
2013-03-13 11:17:00,59.6,37.6,30.43,South,173,8.0,26.0,44,0.00,,,0.00,Wunderground v.1.15,2013-03-13 16:17:00,
2013-03-13 11:23:00,60.3,37.7,30.43,South,170,8.0,26.0,43,0.00,,,0.00,Wunderground v.1.15,2013-03-13 16:23:00,
2013-03-13 11:28:00,60.5,37.9,30.43,ESE,121,9.0,26.0,43,0.00,,,0.00,Wunderground v.1.15,2013-03-13 16:28:00,
2013-03-13 11:33:00,60.7,37.5,30.43,ESE,123,10.0,26.0,42,0.00,,,0.00,Wunderground v.1.15,2013-03-13 16:33:00,
2013-03-13 11:39:00,61.0,37.1,30.43,SE,125,9.0,26.0,41,0.00,,,0.00,Wunderground v.1.15,2013-03-13 16:39:00,
2013-03-13 11:45:00,61.3,36.8,30.43,SE,126,9.0,26.0,40,0.00,,,0.00,Wunderground v.1.15,2013-03-13 16:45:00,
2013-03-13 11:50:00,61.4,37.5,30.43,SE,143,9.0,9.0,41,0.00,,,0.00,Wunderground v.1.15,2013-03-13 16:50:00,
2013-03-13 11:56:00,61.6,37.7,30.42,ESE,113,9.0,26.0,41,0.00,,,0.00,Wunderground v.1.15,2013-03-13 16:56:00,
2013-03-13 12:02:00,61.9,37.9,30.42,SE,143,8.0,26.0,41,0.00,,,0.00,Wunderground v.1.15,2013-03-13 17:02:00,
2013-03-13 12:07:00,62.1,38.1,30.42,East,94,8.0,26.0,41,0.00,,,0.00,Wunderground v.1.15,2013-03-13 17:07:00,
2013-03-13 12:13:00,62.1,37.5,30.42,South,191,9.0,26.0,40,0.00,,,0.00,Wunderground v.1.15,2013-03-13 17:13:00,
2013-03-13 12:18:00,62.5,37.8,30.42,SSE,148,9.0,26.0,40,0.00,,,0.00,Wunderground v.1.15,2013-03-13 17:18:00,
2013-03-13 12:24:00,62.9,37.5,30.41,SE,128,8.0,26.0,39,0.00,,,0.00,Wunderground v.1.15,2013-03-13 17:24:00,
2013-03-13 12:30:00,63.5,37.4,30.41,South,173,9.0,26.0,38,0.00,,,0.00,Wunderground v.1.15,2013-03-13 17:30:00,
2013-03-13 12:35:00,63.6,38.8,30.41,ESE,118,9.0,26.0,40,0.00,,,0.00,Wunderground v.1.15,2013-03-13 17:35:00,
2013-03-13 12:41:00,64.0,37.2,30.41,SSE,153,8.0,26.0,37,0.00,,,0.00,Wunderground v.1.15,2013-03-13 17:41:00,
2013-03-13 12:46:00,64.5,38.3,30.40,SSW,204,8.0,26.0,38,0.00,,,0.00,Wunderground v.1.15,2013-03-13 17:46:00,
2013-03-13 12:52:00,64.4,37.5,30.40,SSW,198,8.0,26.0,37,0.00,,,0.00,Wunderground v.1.15,2013-03-13 17:52:00,
2013-03-13 12:58:00,64.5,36.9,30.40,South,177,9.0,26.0,36,0.00,,,0.00,Wunderground v.1.15,2013-03-13 17:58:00,
2013-03-13 13:04:00,65.1,38.2,30.40,South,184,8.0,26.0,37,0.00,,,0.00,Wunderground v.1.15,2013-03-13 18:04:00,
2013-03-13 13:10:00,65.3,37.6,30.39,SSE,166,8.0,26.0,36,0.00,,,0.00,Wunderground v.1.15,2013-03-13 18:10:00,
2013-03-13 13:15:00,65.0,37.4,30.39,SSE,156,9.0,26.0,36,0.00,,,0.00,Wunderground v.1.15,2013-03-13 18:15:00,
2013-03-13 13:20:00,65.4,37.7,30.39,ESE,115,9.0,26.0,36,0.00,,,0.00,Wunderground v.1.15,2013-03-13 18:20:00,
2013-03-13 13:25:00,65.5,37.8,30.39,SE,139,8.0,26.0,36,0.00,,,0.00,Wunderground v.1.15,2013-03-13 18:25:00,
2013-03-13 13:31:00,66.4,37.9,30.38,SSE,166,7.0,26.0,35,0.00,,,0.00,Wunderground v.1.15,2013-03-13 18:31:00,
2013-03-13 13:36:00,66.3,38.5,30.38,SSE,156,8.0,26.0,36,0.00,,,0.00,Wunderground v.1.15,2013-03-13 18:36:00,
2013-03-13 13:42:00,66.4,37.9,30.38,South,169,8.0,26.0,35,0.00,,,0.00,Wunderground v.1.15,2013-03-13 18:42:00,
2013-03-13 13:48:00,66.5,38.0,30.37,South,176,9.0,26.0,35,0.00,,,0.00,Wunderground v.1.15,2013-03-13 18:48:00,
2013-03-13 13:54:00,67.0,38.4,30.37,SSW,194,7.0,26.0,35,0.00,,,0.00,Wunderground v.1.15,2013-03-13 18:54:00,
2013-03-13 14:00:00,67.3,39.4,30.37,SSW,205,6.0,6.0,36,0.00,,,0.00,Wunderground v.1.15,2013-03-13 19:00:00,
2013-03-13 14:06:00,67.9,39.2,30.36,SSE,167,6.0,26.0,35,0.00,,,0.00,Wunderground v.1.15,2013-03-13 19:06:00,
2013-03-13 14:11:00,67.5,37.4,30.36,South,169,7.0,26.0,33,0.00,,,0.00,Wunderground v.1.15,2013-03-13 19:11:00,
2013-03-13 14:16:00,67.6,39.7,30.36,ESE,121,8.0,26.0,36,0.00,,,0.00,Wunderground v.1.15,2013-03-13 19:16:00,
2013-03-13 14:21:00,67.9,39.9,30.35,SSE,165,6.0,8.0,36,0.00,,,0.00,Wunderground v.1.15,2013-03-13 19:21:00,
2013-03-13 14:27:00,68.0,37.8,30.35,SSW,194,5.0,26.0,33,0.00,,,0.00,Wunderground v.1.15,2013-03-13 19:27:00,
2013-03-13 14:33:00,68.8,39.3,30.35,WSW,243,4.0,26.0,34,0.00,,,0.00,Wunderground v.1.15,2013-03-13 19:33:00,
2013-03-13 14:38:00,69.2,39.6,30.35,South,170,5.0,26.0,34,0.00,,,0.00,Wunderground v.1.15,2013-03-13 19:38:00,
2013-03-13 14:43:00,69.6,40.7,30.34,SSE,157,5.0,26.0,35,0.00,,,0.00,Wunderground v.1.15,2013-03-13 19:43:00,
2013-03-13 14:49:00,69.7,37.7,30.34,SSW,200,6.0,26.0,31,0.00,,,0.00,Wunderground v.1.15,2013-03-13 19:49:00,
2013-03-13 14:54:00,69.5,38.3,30.33,SW,221,7.0,26.0,32,0.00,,,0.00,Wunderground v.1.15,2013-03-13 19:54:00,
2013-03-13 15:00:00,70.0,38.8,30.33,SSE,159,7.0,26.0,32,0.00,,,0.00,Wunderground v.1.15,2013-03-13 20:00:00,
2013-03-13 15:05:00,70.2,38.9,30.33,SW,228,7.0,26.0,32,0.00,,,0.00,Wunderground v.1.15,2013-03-13 20:05:00,
2013-03-13 15:10:00,69.9,39.5,30.33,WSW,248,8.0,8.0,33,0.00,,,0.00,Wunderground v.1.15,2013-03-13 20:10:00,
2013-03-13 15:16:00,69.5,37.5,30.32,SSW,211,7.0,26.0,31,0.00,,,0.00,Wunderground v.1.15,2013-03-13 20:16:00,
2013-03-13 15:21:00,69.8,38.6,30.32,WSW,249,7.0,26.0,32,0.00,,,0.00,Wunderground v.1.15,2013-03-13 20:21:00,
2013-03-13 15:26:00,69.9,38.7,30.32,WSW,243,8.0,26.0,32,0.00,,,0.00,Wunderground v.1.15,2013-03-13 20:26:00,
2013-03-13 15:32:00,69.9,37.9,30.32,SW,236,9.0,26.0,31,0.00,,,0.00,Wunderground v.1.15,2013-03-13 20:32:00,
2013-03-13 15:37:00,70.0,38.0,30.32,SSW,211,8.0,26.0,31,0.00,,,0.00,Wunderground v.1.15,2013-03-13 20:37:00,
2013-03-13 15:43:00,70.0,38.0,30.31,SSE,155,7.0,26.0,31,0.00,,,0.00,Wunderground v.1.15,2013-03-13 20:43:00,
2013-03-13 15:49:00,70.3,37.4,30.31,West,274,6.0,26.0,30,0.00,,,0.00,Wunderground v.1.15,2013-03-13 20:49:00,
2013-03-13 15:54:00,70.1,37.2,30.31,NNE,13,6.0,26.0,30,0.00,,,0.00,Wunderground v.1.15,2013-03-13 20:54:00,
2013-03-13 16:00:00,70.7,38.6,30.31,SSW,211,5.0,26.0,31,0.00,,,0.00,Wunderground v.1.15,2013-03-13 21:00:00,
2013-03-13 16:05:00,70.7,37.7,30.31,SSW,193,7.0,26.0,30,0.00,,,0.00,Wunderground v.1.15,2013-03-13 21:05:00,
2013-03-13 16:10:00,71.0,38.8,30.31,South,180,6.0,6.0,31,0.00,,,0.00,Wunderground v.1.15,2013-03-13 21:10:00,
2013-03-13 16:16:00,71.2,39.0,30.30,SE,131,5.0,26.0,31,0.00,,,0.00,Wunderground v.1.15,2013-03-13 21:16:00,
2013-03-13 16:22:00,70.8,37.8,30.30,South,186,6.0,26.0,30,0.00,,,0.00,Wunderground v.1.15,2013-03-13 21:22:00,
2013-03-13 16:28:00,71.2,38.2,30.30,SSW,208,5.0,26.0,30,0.00,,,0.00,Wunderground v.1.15,2013-03-13 21:28:00,
2013-03-13 16:33:00,71.2,38.2,30.30,SSW,208,5.0,26.0,30,0.00,,,0.00,Wunderground v.1.15,2013-03-13 21:33:00,
2013-03-13 16:38:00,71.2,38.2,30.30,South,188,5.0,26.0,30,0.00,,,0.00,Wunderground v.1.15,2013-03-13 21:38:00,
2013-03-13 16:43:00,71.2,39.8,30.30,SSW,208,6.0,26.0,32,0.00,,,0.00,Wunderground v.1.15,2013-03-13 21:43:00,
2013-03-13 16:49:00,71.4,39.2,30.30,SE,142,6.0,26.0,31,0.00,,,0.00,Wunderground v.1.15,2013-03-13 21:49:00,
2013-03-13 16:54:00,71.8,38.7,30.30,SSW,211,5.0,26.0,30,0.00,,,0.00,Wunderground v.1.15,2013-03-13 21:54:00,
2013-03-13 17:00:00,71.9,37.9,30.29,East,91,5.0,5.0,29,0.00,,,0.00,Wunderground v.1.15,2013-03-13 22:00:00,
2013-03-13 17:05:00,71.8,37.8,30.29,SSE,156,3.0,26.0,29,0.00,,,0.00,Wunderground v.1.15,2013-03-13 22:05:00,
2013-03-13 17:10:00,72.2,39.0,30.29,SW,217,3.0,26.0,30,0.00,,,0.00,Wunderground v.1.15,2013-03-13 22:10:00,
2013-03-13 17:16:00,72.0,38.9,30.29,SE,133,5.0,26.0,30,0.00,,,0.00,Wunderground v.1.15,2013-03-13 22:16:00,
2013-03-13 17:22:00,71.8,38.7,30.29,SE,128,5.0,26.0,30,0.00,,,0.00,Wunderground v.1.15,2013-03-13 22:22:00,
2013-03-13 17:27:00,71.8,39.5,30.29,ESE,106,4.0,26.0,31,0.00,,,0.00,Wunderground v.1.15,2013-03-13 22:27:00,
2013-03-13 17:32:00,71.7,39.4,30.28,South,169,3.0,26.0,31,0.00,,,0.00,Wunderground v.1.15,2013-03-13 22:32:00,
2013-03-13 17:38:00,72.0,38.9,30.28,SSE,149,4.0,26.0,30,0.00,,,0.00,Wunderground v.1.15,2013-03-13 22:38:00,
2013-03-13 17:44:00,72.1,38.9,30.29,South,170,5.0,26.0,30,0.00,,,0.00,Wunderground v.1.15,2013-03-13 22:44:00,
2013-03-13 17:50:00,72.2,39.0,30.28,SSE,160,5.0,26.0,30,0.00,,,0.00,Wunderground v.1.15,2013-03-13 22:50:00,
2013-03-13 17:55:00,72.1,38.1,30.28,South,174,4.0,26.0,29,0.00,,,0.00,Wunderground v.1.15,2013-03-13 22:55:00,
2013-03-13 18:01:00,72.3,38.2,30.28,ESE,120,5.0,26.0,29,0.00,,,0.00,Wunderground v.1.15,2013-03-13 23:01:00,
2013-03-13 18:06:00,72.0,38.0,30.28,ESE,111,6.0,26.0,29,0.00,,,0.00,Wunderground v.1.15,2013-03-13 23:06:00,
2013-03-13 18:11:00,71.8,38.7,30.28,South,179,5.0,8.0,30,0.00,,,0.00,Wunderground v.1.15,2013-03-13 23:11:00,
2013-03-13 18:16:00,71.7,38.6,30.28,SE,134,5.0,26.0,30,0.00,,,0.00,Wunderground v.1.15,2013-03-13 23:16:00,
2013-03-13 18:22:00,71.5,38.4,30.28,SE,130,5.0,26.0,30,0.00,,,0.00,Wunderground v.1.15,2013-03-13 23:22:00,
2013-03-13 18:28:00,71.4,39.2,30.28,SSE,155,5.0,26.0,31,0.00,,,0.00,Wunderground v.1.15,2013-03-13 23:28:00,
2013-03-13 18:33:00,71.1,38.9,30.28,ESE,109,5.0,26.0,31,0.00,,,0.00,Wunderground v.1.15,2013-03-13 23:33:00,
2013-03-13 18:39:00,70.6,39.3,30.28,ESE,104,5.0,26.0,32,0.00,,,0.00,Wunderground v.1.15,2013-03-13 23:39:00,
2013-03-13 18:44:00,70.3,39.0,30.28,ESE,111,5.0,26.0,32,0.00,,,0.00,Wunderground v.1.15,2013-03-13 23:44:00,
2013-03-13 18:49:00,70.3,39.8,30.28,SE,146,5.0,26.0,33,0.00,,,0.00,Wunderground v.1.15,2013-03-13 23:49:00,
2013-03-13 18:55:00,70.1,38.9,30.28,ESE,121,4.0,26.0,32,0.00,,,0.00,Wunderground v.1.15,2013-03-13 23:55:00,
2013-03-13 19:00:00,69.7,39.3,30.28,ESE,115,5.0,26.0,33,0.00,,,0.00,Wunderground v.1.15,2013-03-14 00:00:00,
2013-03-13 19:05:00,69.3,39.7,30.28,SE,145,5.0,26.0,34,0.00,,,0.00,Wunderground v.1.15,2013-03-14 00:05:00,
2013-03-13 19:10:00,68.9,39.4,30.28,SSE,159,5.0,5.0,34,0.00,,,0.00,Wunderground v.1.15,2013-03-14 00:10:00,
2013-03-13 19:16:00,68.5,39.8,30.28,ESE,122,4.0,26.0,35,0.00,,,0.00,Wunderground v.1.15,2013-03-14 00:16:00,
2013-03-13 19:21:00,68.0,40.0,30.28,SSE,156,3.0,4.0,36,0.00,,,0.00,Wunderground v.1.15,2013-03-14 00:21:00,
2013-03-13 19:27:00,67.3,39.4,30.28,South,169,3.0,26.0,36,0.00,,,0.00,Wunderground v.1.15,2013-03-14 00:27:00,
2013-03-13 19:33:00,66.7,39.6,30.28,SSE,154,4.0,26.0,37,0.00,,,0.00,Wunderground v.1.15,2013-03-14 00:33:00,
2013-03-13 19:39:00,66.0,39.7,30.28,SE,139,3.0,26.0,38,0.00,,,0.00,Wunderground v.1.15,2013-03-14 00:39:00,
2013-03-13 19:44:00,65.4,39.8,30.28,SE,145,3.0,26.0,39,0.00,,,0.00,Wunderground v.1.15,2013-03-14 00:44:00,
2013-03-13 19:50:00,64.6,40.4,30.28,South,174,2.0,26.0,41,0.00,,,0.00,Wunderground v.1.15,2013-03-14 00:50:00,
2013-03-13 19:55:00,64.3,40.1,30.27,SE,143,2.0,26.0,41,0.00,,,0.00,Wunderground v.1.15,2013-03-14 00:55:00,
2013-03-13 20:00:00,64.0,39.8,30.28,SSE,165,4.0,26.0,41,0.00,,,0.00,Wunderground v.1.15,2013-03-14 01:00:00,
2013-03-13 20:05:00,63.7,40.2,30.28,SSE,163,4.0,26.0,42,0.00,,,0.00,Wunderground v.1.15,2013-03-14 01:05:00,
2013-03-13 20:11:00,63.3,39.8,30.28,SE,128,4.0,26.0,42,0.00,,,0.00,Wunderground v.1.15,2013-03-14 01:11:00,
2013-03-13 20:16:00,63.2,39.7,30.28,SSE,166,4.0,26.0,42,0.00,,,0.00,Wunderground v.1.15,2013-03-14 01:16:00,
2013-03-13 20:21:00,62.5,40.3,30.28,SE,141,3.0,26.0,44,0.00,,,0.00,Wunderground v.1.15,2013-03-14 01:21:00,
2013-03-13 20:26:00,62.3,39.5,30.28,South,169,3.0,26.0,43,0.00,,,0.00,Wunderground v.1.15,2013-03-14 01:26:00,
2013-03-13 20:32:00,62.3,39.5,30.28,SSE,149,5.0,26.0,43,0.00,,,0.00,Wunderground v.1.15,2013-03-14 01:32:00,
2013-03-13 20:37:00,62.3,39.5,30.28,SSE,153,6.0,26.0,43,0.00,,,0.00,Wunderground v.1.15,2013-03-14 01:37:00,
2013-03-13 20:43:00,62.2,39.4,30.28,South,170,5.0,26.0,43,0.00,,,0.00,Wunderground v.1.15,2013-03-14 01:43:00,
2013-03-13 20:49:00,61.9,39.7,30.28,South,174,5.0,26.0,44,0.00,,,0.00,Wunderground v.1.15,2013-03-14 01:49:00,
2013-03-13 20:55:00,61.6,39.5,30.28,SE,142,5.0,26.0,44,0.00,,,0.00,Wunderground v.1.15,2013-03-14 01:55:00,
2013-03-13 21:00:00,61.4,39.3,30.28,SSE,159,5.0,26.0,44,0.00,,,0.00,Wunderground v.1.15,2013-03-14 02:00:00,
2013-03-13 21:06:00,61.3,39.2,30.29,South,172,5.0,26.0,44,0.00,,,0.00,Wunderground v.1.15,2013-03-14 02:06:00,
2013-03-13 21:11:00,61.3,39.2,30.29,SE,136,6.0,26.0,44,0.00,,,0.00,Wunderground v.1.15,2013-03-14 02:11:00,
2013-03-13 21:17:00,60.9,39.4,30.29,South,170,5.0,26.0,45,0.00,,,0.00,Wunderground v.1.15,2013-03-14 02:17:00,
2013-03-13 21:22:00,60.7,39.2,30.29,SE,145,4.0,5.0,45,0.00,,,0.00,Wunderground v.1.15,2013-03-14 02:22:00,
2013-03-13 21:27:00,60.5,39.6,30.29,SSE,167,5.0,5.0,46,0.00,,,0.00,Wunderground v.1.15,2013-03-14 02:27:00,
2013-03-13 21:32:00,60.5,39.6,30.29,SSE,167,6.0,7.0,46,0.00,,,0.00,Wunderground v.1.15,2013-03-14 02:32:00,
2013-03-13 21:38:00,60.4,39.5,30.30,SSE,165,6.0,7.0,46,0.00,,,0.00,Wunderground v.1.15,2013-03-14 02:38:00,
2013-03-13 21:43:00,60.3,39.4,30.30,SE,139,6.0,8.0,46,0.00,,,0.00,Wunderground v.1.15,2013-03-14 02:43:00,
2013-03-13 21:49:00,60.2,39.3,30.30,SSE,154,6.0,8.0,46,0.00,,,0.00,Wunderground v.1.15,2013-03-14 02:49:00,
2013-03-13 21:54:00,59.9,39.6,30.30,SE,146,6.0,6.0,47,0.00,,,0.00,Wunderground v.1.15,2013-03-14 02:54:00,
2013-03-13 21:59:00,59.6,39.3,30.30,SSE,163,5.0,6.0,47,0.00,,,0.00,Wunderground v.1.15,2013-03-14 02:59:00,
2013-03-13 22:04:00,59.4,39.7,30.30,South,176,5.0,9.0,48,0.00,,,0.00,Wunderground v.1.15,2013-03-14 03:04:00,
2013-03-13 22:10:00,59.4,39.7,30.30,SE,145,6.0,7.0,48,0.00,,,0.00,Wunderground v.1.15,2013-03-14 03:10:00,
2013-03-13 22:15:00,59.2,39.5,30.31,South,169,6.0,7.0,48,0.00,,,0.00,Wunderground v.1.15,2013-03-14 03:15:00,
2013-03-13 22:20:00,59.0,39.9,30.31,SSE,161,5.0,5.0,49,0.00,,,0.00,Wunderground v.1.15,2013-03-14 03:20:00,
2013-03-13 22:25:00,58.6,40.0,30.31,SSE,149,4.0,5.0,50,0.00,,,0.00,Wunderground v.1.15,2013-03-14 03:25:00,
2013-03-13 22:31:00,58.0,40.0,30.32,SE,128,3.0,3.0,51,0.00,,,0.00,Wunderground v.1.15,2013-03-14 03:31:00,
2013-03-13 22:37:00,57.0,40.0,30.32,SE,132,2.0,3.0,53,0.00,,,0.00,Wunderground v.1.15,2013-03-14 03:37:00,
2013-03-13 22:43:00,56.4,40.0,30.32,SE,127,2.0,4.0,54,0.00,,,0.00,Wunderground v.1.15,2013-03-14 03:43:00,
2013-03-13 22:48:00,56.2,40.2,30.32,SE,124,2.0,4.0,55,0.00,,,0.00,Wunderground v.1.15,2013-03-14 03:48:00,
2013-03-13 22:54:00,55.9,40.0,30.32,South,169,2.0,2.0,55,0.00,,,0.00,Wunderground v.1.15,2013-03-14 03:54:00,
2013-03-13 23:00:00,55.8,39.9,30.32,South,181,3.0,5.0,55,0.00,,,0.00,Wunderground v.1.15,2013-03-14 04:00:00,
2013-03-13 23:01:00,55.8,39.9,30.32,SSE,150,3.0,5.0,55,0.00,,,0.00,Wunderground v.1.15,2013-03-14 04:01:00,
2013-03-13 23:02:00,55.8,39.9,30.32,SE,144,3.0,5.0,55,0.00,,,0.00,Wunderground v.1.15,2013-03-14 04:02:00,
2013-03-13 23:04:00,55.8,39.9,30.32,SSE,162,3.0,5.0,55,0.00,,,0.00,Wunderground v.1.15,2013-03-14 04:04:00,
2013-03-13 23:09:00,55.8,39.9,30.32,SSE,152,4.0,5.0,55,0.00,,,0.00,Wunderground v.1.15,2013-03-14 04:09:00,
2013-03-13 23:14:00,55.7,40.2,30.32,South,188,4.0,4.0,56,0.00,,,0.00,Wunderground v.1.15,2013-03-14 04:14:00,
2013-03-13 23:20:00,55.5,40.0,30.32,SSE,162,4.0,4.0,56,0.00,,,0.00,Wunderground v.1.15,2013-03-14 04:20:00,
2013-03-13 23:26:00,55.4,40.0,30.32,SE,138,4.0,5.0,56,0.00,,,0.00,Wunderground v.1.15,2013-03-14 04:26:00,
2013-03-13 23:31:00,55.3,39.9,30.32,SE,146,4.0,4.0,56,0.00,,,0.00,Wunderground v.1.15,2013-03-14 04:31:00,
2013-03-13 23:36:00,55.2,40.2,30.32,SSE,153,4.0,5.0,57,0.00,,,0.00,Wunderground v.1.15,2013-03-14 04:36:00,
2013-03-13 23:42:00,55.0,40.0,30.32,South,176,4.0,4.0,57,0.00,,,0.00,Wunderground v.1.15,2013-03-14 04:42:00,
2013-03-13 23:47:00,54.9,39.9,30.32,SSE,159,4.0,5.0,57,0.00,,,0.00,Wunderground v.1.15,2013-03-14 04:47:00,
2013-03-13 23:53:00,54.6,40.1,30.32,SSE,162,4.0,4.0,58,0.00,,,0.00,Wunderground v.1.15,2013-03-14 04:53:00,
2013-03-13 23:59:00,54.3,40.3,30.32,SE,132,3.0,4.0,59,0.00,,,0.00,Wunderground v.1.15,2013-03-14 04:59:00,